• In Hungary
  • List of Countries
  • For 7 days
  • Water Temperature
  • Satellite Maps
  • Weather Map
  • News
  • Weather Widgets
  • user-avatar
    Login

    Hourly Weather Zavallya

    Today, 17 January, Wednesday

    Time Temperature Precipitation Wind Pressure Humidity
    00:00 -9°C° 0.3 mm 7 mps 729 mmHg 79%
    01:00 -9°C° 0.3 mm 7 mps 729 mmHg 84%
    02:00 -8°C° 0 mm 5 mps 728 mmHg 86%
    03:00 -8°C° 0.6 mm 5 mps 727 mmHg 88%
    04:00 -8°C° 0.6 mm 5 mps 726 mmHg 90%
    05:00 -9°C° 0.6 mm 6 mps 726 mmHg 92%
    06:00 -8°C° 0.2 mm 6 mps 726 mmHg 90%
    07:00 -6°C° 0.2 mm 5 mps 726 mmHg 89%
    08:00 -5°C° 0.2 mm 5 mps 725 mmHg 87%
    09:00 -5°C° 0 mm 5 mps 725 mmHg 85%
    10:00 -4°C° 0 mm 6 mps 726 mmHg 83%
    11:00 -3°C° 0 mm 6 mps 726 mmHg 81%
    12:00 -2°C° 0 mm 5 mps 725 mmHg 80%
    13:00 -1°C° 0 mm 4 mps 725 mmHg 80%
    14:00 0°C° 0 mm 3 mps 725 mmHg 80%
    15:00 -1°C° 0 mm 3 mps 725 mmHg 82%
    16:00 -1°C° 0 mm 3 mps 726 mmHg 84%
    17:00 -2°C° 0 mm 2 mps 726 mmHg 87%
    18:00 -3°C° 0 mm 2 mps 726 mmHg 87%
    19:00 -3°C° 0 mm 2 mps 726 mmHg 88%
    20:00 -3°C° 0 mm 2 mps 726 mmHg 89%
    21:00 -4°C° 0 mm 2 mps 726 mmHg 90%
    22:00 -4°C° 0 mm 2 mps 726 mmHg 90%
    23:00 -4°C° 0 mm 2 mps 727 mmHg 91%

    Tomorrow, 18 January, Thursday

    Time Temperature Precipitation Wind Pressure Humidity
    00:00 -4°C° 0 mm 2 mps 727 mmHg 91%
    01:00 -4°C° 0 mm 2 mps 727 mmHg 92%
    02:00 -4°C° 0 mm 2 mps 728 mmHg 92%
    03:00 -5°C° 0 mm 3 mps 728 mmHg 93%
    04:00 -6°C° 0 mm 3 mps 728 mmHg 93%
    05:00 -6°C° 0 mm 3 mps 729 mmHg 93%
    06:00 -6°C° 0 mm 3 mps 729 mmHg 93%
    07:00 -7°C° 0 mm 4 mps 730 mmHg 93%
    08:00 -5°C° 0 mm 4 mps 730 mmHg 93%
    09:00 -5°C° 0 mm 4 mps 731 mmHg 91%
    10:00 -5°C° 0 mm 5 mps 731 mmHg 90%
    11:00 -4°C° 0 mm 5 mps 732 mmHg 88%
    12:00 -4°C° 0 mm 5 mps 732 mmHg 86%
    13:00 -2°C° 0 mm 5 mps 732 mmHg 84%
    14:00 -2°C° 0 mm 5 mps 733 mmHg 82%
    15:00 -2°C° 0 mm 4 mps 733 mmHg 83%
    16:00 -3°C° 0 mm 4 mps 733 mmHg 84%
    17:00 -2°C° 0 mm 3 mps 733 mmHg 85%
    18:00 -2°C° 0 mm 2 mps 733 mmHg 86%
    19:00 -3°C° 0 mm 2 mps 733 mmHg 86%
    20:00 -3°C° 0 mm 2 mps 732 mmHg 87%
    21:00 -5°C° 0 mm 3 mps 732 mmHg 86%
    22:00 -5°C° 0 mm 4 mps 731 mmHg 85%
    23:00 -5°C° 0 mm 4 mps 730 mmHg 83%

    Day after tomorrow, 19 January, Friday

    Time Temperature Precipitation Wind Pressure Humidity
    00:00 -5°C° 0.1 mm 5 mps 729 mmHg 82%
    01:00 -4°C° 0.1 mm 6 mps 728 mmHg 81%
    02:00 -4°C° 0.1 mm 7 mps 727 mmHg 80%
    03:00 -3°C° 0.2 mm 7 mps 727 mmHg 81%
    04:00 -3°C° 0.2 mm 7 mps 726 mmHg 81%
    05:00 -2°C° 0.2 mm 7 mps 725 mmHg 82%
    06:00 -2°C° 0 mm 7 mps 725 mmHg 82%
    07:00 -2°C° 0 mm 7 mps 726 mmHg 82%
    08:00 -3°C° 0 mm 6 mps 726 mmHg 81%
    09:00 -2°C° 0.1 mm 7 mps 726 mmHg 79%
    10:00 -2°C° 0.1 mm 8 mps 726 mmHg 76%
    11:00 -3°C° 0.1 mm 9 mps 726 mmHg 74%
    12:00 -3°C° 0.1 mm 9 mps 727 mmHg 75%
    13:00 -3°C° 0.1 mm 9 mps 727 mmHg 76%
    14:00 -3°C° 0.1 mm 9 mps 728 mmHg 77%
    15:00 -3°C° 0.1 mm 9 mps 729 mmHg 77%
    16:00 -3°C° 0.1 mm 9 mps 729 mmHg 77%
    17:00 -4°C° 0.1 mm 9 mps 730 mmHg 77%
    18:00 -4°C° 0 mm 8 mps 731 mmHg 78%
    19:00 -4°C° 0 mm 8 mps 732 mmHg 79%
    20:00 -4°C° 0 mm 7 mps 732 mmHg 81%
    21:00 -4°C° 0 mm 7 mps 733 mmHg 82%
    22:00 -4°C° 0 mm 7 mps 734 mmHg 83%
    23:00 -6°C° 0 mm 7 mps 734 mmHg 84%

    20 January, Saturday

    Time Temperature Precipitation Wind Pressure Humidity
    00:00 -5°C° 0 mm 6 mps 735 mmHg 85%
    01:00 -5°C° 0 mm 6 mps 735 mmHg 86%
    02:00 -5°C° 0 mm 5 mps 736 mmHg 87%
    03:00 -5°C° 0 mm 4 mps 736 mmHg 88%
    04:00 -5°C° 0 mm 4 mps 736 mmHg 89%
    05:00 -5°C° 0 mm 3 mps 736 mmHg 90%
    06:00 -5°C° 0 mm 3 mps 736 mmHg 90%
    07:00 -5°C° 0 mm 3 mps 736 mmHg 90%
    08:00 -4°C° 0 mm 3 mps 736 mmHg 90%
    09:00 -4°C° 0 mm 3 mps 736 mmHg 88%
    10:00 -2°C° 0 mm 3 mps 736 mmHg 86%
    11:00 -3°C° 0 mm 4 mps 736 mmHg 84%
    12:00 -2°C° 0 mm 4 mps 736 mmHg 83%
    13:00 -2°C° 0 mm 4 mps 736 mmHg 82%
    14:00 -2°C° 0 mm 4 mps 736 mmHg 81%
    15:00 -1°C° 0 mm 3 mps 736 mmHg 83%
    16:00 -2°C° 0 mm 2 mps 736 mmHg 85%
    17:00 -3°C° 0 mm 2 mps 736 mmHg 87%
    18:00 -3°C° 0 mm 2 mps 736 mmHg 88%
    19:00 -3°C° 0 mm 2 mps 736 mmHg 88%
    20:00 -4°C° 0 mm 2 mps 736 mmHg 88%
    21:00 -4°C° 0 mm 2 mps 736 mmHg 89%
    22:00 -4°C° 0 mm 2 mps 736 mmHg 89%
    23:00 -4°C° 0 mm 2 mps 736 mmHg 90%

    21 January, Sunday

    Time Temperature Precipitation Wind Pressure Humidity
    00:00 -4°C° 0 mm 2 mps 736 mmHg 91%
    01:00 -4°C° 0 mm 2 mps 736 mmHg 91%
    02:00 -4°C° 0 mm 2 mps 736 mmHg 92%
    03:00 -4°C° 0.1 mm 2 mps 736 mmHg 92%
    04:00 -4°C° 0.1 mm 2 mps 736 mmHg 92%
    05:00 -4°C° 0.1 mm 2 mps 736 mmHg 93%
    06:00 -4°C° 0.1 mm 2 mps 736 mmHg 93%
    07:00 -4°C° 0.1 mm 2 mps 737 mmHg 94%
    08:00 -4°C° 0.1 mm 2 mps 737 mmHg 94%
    09:00 -5°C° 0.2 mm 3 mps 737 mmHg 93%
    10:00 -4°C° 0.2 mm 3 mps 738 mmHg 92%
    11:00 -4°C° 0.2 mm 4 mps 738 mmHg 91%
    12:00 -4°C° 0.2 mm 4 mps 739 mmHg 90%
    13:00 -4°C° 0.2 mm 5 mps 739 mmHg 88%
    14:00 -4°C° 0.2 mm 5 mps 739 mmHg 86%
    15:00 -4°C° 0.1 mm 4 mps 740 mmHg 86%
    16:00 -4°C° 0.1 mm 4 mps 740 mmHg 87%
    17:00 -4°C° 0.1 mm 3 mps 741 mmHg 87%
    18:00 -5°C° 0 mm 3 mps 741 mmHg 88%
    19:00 -5°C° 0 mm 3 mps 742 mmHg 90%
    20:00 -5°C° 0 mm 2 mps 742 mmHg 91%
    21:00 -5°C° 0 mm 2 mps 742 mmHg 91%
    22:00 -5°C° 0 mm 2 mps 742 mmHg 92%
    23:00 -6°C° 0 mm 2 mps 743 mmHg 93%

    22 January, Monday

    Time Temperature Precipitation Wind Pressure Humidity
    00:00 -6°C° 0 mm 2 mps 743 mmHg 93%
    01:00 -6°C° 0 mm 2 mps 743 mmHg 94%
    02:00 -6°C° 0 mm 2 mps 743 mmHg 94%
    03:00 -6°C° 0 mm 2 mps 743 mmHg 95%
    04:00 -5°C° 0 mm 2 mps 743 mmHg 95%
    05:00 -5°C° 0 mm 2 mps 743 mmHg 95%
    06:00 -5°C° 0 mm 2 mps 744 mmHg 95%
    07:00 -5°C° 0 mm 2 mps 744 mmHg 95%
    08:00 -5°C° 0 mm 2 mps 744 mmHg 96%
    09:00 -6°C° 0 mm 3 mps 744 mmHg 93%
    10:00 -5°C° 0 mm 3 mps 745 mmHg 90%
    11:00 -4°C° 0 mm 3 mps 745 mmHg 88%
    12:00 -4°C° 0 mm 3 mps 745 mmHg 83%
    13:00 -2°C° 0 mm 3 mps 745 mmHg 78%
    14:00 -2°C° 0 mm 3 mps 745 mmHg 74%
    15:00 -2°C° 0 mm 3 mps 745 mmHg 77%
    16:00 -3°C° 0 mm 2 mps 745 mmHg 80%
    17:00 -4°C° 0 mm 2 mps 746 mmHg 83%
    18:00 -2°C° 0 mm 1 mps 746 mmHg 84%
    19:00 -2°C° 0 mm 1 mps 746 mmHg 84%
    20:00 -3°C° 0 mm 1 mps 746 mmHg 85%
    21:00 -3°C° 0 mm 1 mps 747 mmHg 85%
    22:00 -3°C° 0 mm 1 mps 747 mmHg 84%
    23:00 -3°C° 0 mm 1 mps 747 mmHg 84%
    Show more